Weather History for Rocky Mount, NC

Change the Weather History Date:

Friday, September 28, 2012

  Actual Average Record
Temperature  
Mean Temperature 70 °F -  
Max Temperature 84 °F 79 °F 93 °F (1998)
Min Temperature 55 °F 56 °F 45 °F (1989)
Cooling Degree Days 4    
Growing Degree Days 20 (Base 50)    
Moisture  
Dew Point 61 °F    
Average Humidity 88    
Maximum Humidity 100    
Minimum Humidity 46    
Precipitation  
Precipitation 0.05 in - - ()
Sea Level Pressure  
Sea Level Pressure 30.07 in    
Wind  
Wind Speed 1 mph (SSW)    
Max Wind Speed 8 mph    
Max Gust Speed -    
Visibility 4 miles    
Events Fog , Rain , Thunderstorm    
Averages and records for this station are not official NWS values.
T = Trace of Precipitation, MM = Missing Value Source: NWS Daily Summary

Daily Weather History Graph

Daily Weather History Graph

Search for Another Location

Airport:

Trip Planner

Search our weather history database for the weather conditions in past years. The results will help you decide how hot, cold, wet, or windy it might be!

Date:

Astronomy

Sep. 28, 2012 Rise Set
Actual Time 7:04 AM EDT 6:58 PM EDT
Civil Twilight 6:39 AM EDT 7:24 PM EDT
Nautical Twilight 6:09 AM EDT 7:54 PM EDT
Astronomical Twilight 5:39 AM EDT 8:23 PM EDT
Moon 5:59 PM EDT (9/28) 5:34 AM EDT (9/28)
Length of Visible Light 12h 45m
Length of Day
11h 54m
Waxing Gibbous, 98% of the Moon is Illuminated
Sep 28
Waxing Gibbous
Sep 29
Full
Oct 8
Last Quarter
Oct 15
New
Oct 21
First Quarter

Hourly Weather History & Observations

Time (EDT) Temp. Heat Index Dew Point Humidity Pressure Visibility Wind Dir Wind Speed Gust Speed Precip Events Conditions
12:53 AM 62.1 °F - 60.1 °F 93% 30.11 in 6.0 mi Calm Calm - 0.01 in   Clear
1:08 AM 60.8 °F - 60.8 °F 100% 30.12 in 1.5 mi Calm Calm - N/A   Clear
1:29 AM 60.8 °F - 59.0 °F 94% 30.12 in 0.5 mi Calm Calm - N/A Fog Fog
1:39 AM 60.8 °F - 59.0 °F 94% 30.12 in 2.0 mi Calm Calm - N/A   Clear
1:51 AM 62.6 °F - 60.8 °F 94% 30.12 in 6.0 mi Calm Calm - N/A   Clear
1:53 AM 61.0 °F - 60.1 °F 97% 30.11 in 6.0 mi Calm Calm - N/A   Clear
2:02 AM 60.8 °F - 59.0 °F 94% 30.12 in 1.8 mi Calm Calm - N/A   Clear
2:37 AM 57.2 °F - 57.2 °F 100% 30.11 in 0.5 mi Calm Calm - N/A Fog Fog
2:47 AM 59.0 °F - 57.2 °F 94% 30.11 in 2.0 mi Calm Calm - N/A   Clear
2:53 AM 59.0 °F - 57.9 °F 96% 30.10 in 0.8 mi Calm Calm - N/A   Clear
3:10 AM 57.2 °F - 57.2 °F 100% 30.10 in 1.8 mi Calm Calm - N/A   Partly Cloudy
3:16 AM 57.2 °F - 57.2 °F 100% 30.10 in 0.8 mi Calm Calm - N/A   Mist
3:28 AM 57.2 °F - 57.2 °F 100% 30.10 in 2.0 mi Calm Calm - N/A   Scattered Clouds
3:40 AM 57.2 °F - 57.2 °F 100% 30.10 in 1.0 mi Calm Calm - N/A   Mist
3:48 AM 59.0 °F - 57.2 °F 94% 30.09 in 2.0 mi Calm Calm - N/A   Partly Cloudy
3:53 AM 59.0 °F - 57.9 °F 96% 30.09 in 4.0 mi Calm Calm - N/A   Clear
4:31 AM 59.0 °F - 57.2 °F 94% 30.09 in 1.2 mi Calm Calm - N/A   Clear
4:43 AM 59.0 °F - 57.2 °F 94% 30.09 in 3.0 mi Calm Calm - N/A   Clear
5:53 AM 57.0 °F - 55.9 °F 96% 30.09 in 4.0 mi Calm Calm - N/A   Clear
6:14 AM 59.0 °F - 57.2 °F 94% 30.08 in 1.8 mi Calm Calm - N/A   Clear
6:35 AM 55.4 °F - 55.4 °F 100% 30.09 in 0.5 mi Calm Calm - N/A Fog Fog
6:45 AM 57.2 °F - 57.2 °F 100% 30.09 in 0.2 mi Calm Calm - N/A Fog Fog
6:53 AM 57.9 °F - 57.0 °F 97% 30.09 in 0.2 mi Calm Calm - N/A Fog Fog
7:02 AM 57.2 °F - 57.2 °F 100% 30.09 in 1.0 mi Calm Calm - N/A   Mist
7:04 AM 57.2 °F - 55.4 °F 94% 30.09 in 2.0 mi Calm Calm - N/A   Partly Cloudy
7:11 AM 57.2 °F - 57.2 °F 100% 30.09 in 0.8 mi Calm Calm - N/A   Mist
7:20 AM 57.2 °F - 55.4 °F 94% 30.09 in 0.2 mi South 3.5 mph - N/A Fog Fog
7:32 AM 60.8 °F - 59.0 °F 94% 30.09 in 1.0 mi South 3.5 mph - N/A   Mist
7:34 AM 60.8 °F - 59.0 °F 94% 30.09 in 2.0 mi South 3.5 mph - N/A   Partly Cloudy
7:44 AM 60.8 °F - 60.8 °F 100% 30.09 in 3.0 mi Calm Calm - N/A   Partly Cloudy
7:53 AM 62.1 °F - 61.0 °F 96% 30.09 in 3.0 mi South 3.5 mph - N/A   Clear
8:53 AM 68.0 °F - 64.9 °F 90% 30.09 in 9.0 mi SW 5.8 mph - N/A   Clear
9:53 AM 73.9 °F - 64.9 °F 73% 30.09 in 10.0 mi WSW 4.6 mph - N/A   Clear
10:53 AM 80.1 °F 82.1 °F 66.0 °F 62% 30.08 in 10.0 mi Variable 4.6 mph - N/A   Clear
11:53 AM 80.1 °F 81.9 °F 64.9 °F 60% 30.08 in 10.0 mi South 5.8 mph - N/A   Clear
12:53 PM 82.9 °F 84.0 °F 63.0 °F 51% 30.06 in 10.0 mi Variable 3.5 mph - N/A   Clear
1:53 PM 84.9 °F 85.9 °F 63.0 °F 48% 30.03 in 10.0 mi SSW 8.1 mph - N/A   Clear
2:53 PM 82.9 °F 84.4 °F 64.0 °F 53% 30.01 in 10.0 mi SW 3.5 mph - N/A   Clear
3:53 PM 84.9 °F 85.4 °F 62.1 °F 46% 29.99 in 10.0 mi SSW 4.6 mph - N/A   Clear
4:53 PM 84.0 °F 84.5 °F 62.1 °F 47% 29.98 in 10.0 mi Calm Calm - N/A   Clear
5:53 PM 82.0 °F 83.8 °F 64.9 °F 56% 29.99 in 10.0 mi Calm Calm - N/A   Clear
6:53 PM 73.9 °F - 69.1 °F 85% 29.99 in 10.0 mi Calm Calm - N/A   Clear
7:53 PM 72.0 °F - 68.0 °F 87% 30.00 in 10.0 mi Calm Calm - N/A   Mostly Cloudy
8:53 PM 71.1 °F - 68.0 °F 90% 30.00 in 8.0 mi Calm Calm - N/A   Scattered Clouds
9:28 PM 73.4 °F - 68.0 °F 83% 30.01 in 10.0 mi NW 4.6 mph - N/A Thunderstorm Mostly Cloudy
9:53 PM 72.0 °F - 68.0 °F 87% 30.02 in 7.0 mi SW 6.9 mph - 0.01 in Rain , Thunderstorm Light Thunderstorms and Rain
10:35 PM 69.8 °F - 68.0 °F 94% 30.01 in 4.0 mi East 3.5 mph - 0.03 in   Mostly Cloudy
10:53 PM 70.0 °F - 68.0 °F 93% 30.00 in 4.0 mi Calm Calm - 0.03 in   Partly Cloudy
11:53 PM 70.0 °F - 68.0 °F 93% 30.00 in 7.0 mi NW 3.5 mph - N/A   Clear